Regional Weather Roundup
Issued by NWS

Home | Current Version | Previous Version | Graphics & Text | Print | Product List | Glossary On
Versions: 1 2 3 4 5 6 7 8 9 10 11 12 13 14 15 16 17 18 19 20 21 22 23 24 25 26 27 28 29 30 31 32 33 34 35 36 37 38 39 40 41 42 43 44 45 46 47 48 49 50
000
ASUS45 KCYS 150610
RWRWY

WYOMING REGIONAL WEATHER ROUNDUP
NATIONAL WEATHER SERVICE CHEYENNE WY
1200 AM MDT MON SEP 15 2014

NOTE:  "FAIR" INDICATES FEW OR NO CLOUDS BELOW 12,000 FEET
WITH NO SIGNIFICANT WEATHER AND/OR OBSTRUCTIONS TO VISIBILITY.

WYZ001-150700-
YELLOWSTONE NATIONAL PARK

CITY           SKY/WX    TMP DP  RH WIND       PRES   REMARKS
LK YELLOWSTONE   N/A     35  27  72 NW5       30.31R WCI  31
6HR MIN TEMP:  34; 6HR MAX TEMP:  64;

W YELLOWSTONE  NOT AVBL

$$
WYZ002>013-054>058-071-098>099-150700-
NORTHERN WYOMING

CITY           SKY/WX    TMP DP  RH WIND       PRES   REMARKS
JACKSON        CLEAR     39  27  60 N9        30.22R WCI  33
CODY           CLEAR     48  37  66 W5        30.23S
GREYBULL       CLEAR     53  38  56 NW13      30.18R
6HR MIN TEMP:  53; 6HR MAX TEMP:  70;

WORLAND        CLEAR     47  39  74 SW7       30.20R
6HR MIN TEMP:  46; 6HR MAX TEMP:  69;

SHERIDAN       CLEAR     43  37  79 S5        30.23R
6HR MIN TEMP:  42; 6HR MAX TEMP:  65;

BUFFALO        CLEAR     44  36  73 NW8       30.25R
6HR MIN TEMP:  44; 6HR MAX TEMP:  58;

GILLETTE       CLEAR     38  36  92 CALM      30.22R
6HR MIN TEMP:  37; 6HR MAX TEMP:  62;

HULETT         FAIR      39  36  87 MISG      30.22
NEWCASTLE      FAIR      43  37  81 CALM      30.23

$$
WYZ014>020-022>026-101>103-150700-
CENTRAL WYOMING

CITY           SKY/WX    TMP DP  RH WIND       PRES   REMARKS
BIG PINEY      CLEAR     43  25  49 N7        30.27R
6HR MIN TEMP:  40; 6HR MAX TEMP:  73;

PINEDALE       CLEAR     37  27  65 NW6       30.27S WCI  33
DUBOIS         FAIR      43  27  52 CALM      30.29R
LANDER         CLEAR     51  35  54 W10       30.24R
6HR MIN TEMP:  51; 6HR MAX TEMP:  73;

RIVERTON       CLEAR     49  35  58 E7        30.25R
6HR MIN TEMP:  49; 6HR MAX TEMP:  70;

CASPER         CLEAR     45  38  76 N9        30.25R
6HR MIN TEMP:  45; 6HR MAX TEMP:  70;

DOUGLAS        CLEAR     41  38  89 S3        30.24R
6HR MIN TEMP:  41; 6HR MAX TEMP:  62;


$$
WYZ021-027>030-104>119-150700-
SOUTHERN WYOMING

CITY           SKY/WX    TMP DP  RH WIND       PRES   REMARKS
EVANSTON       PTCLDY    56  33  42 SE7       30.25S
6HR MIN TEMP:  56; 6HR MAX TEMP:  74;

KEMMERER       CLEAR     50  30  46 N10       30.27S
FORT BRIDGER   FAIR      55  32  41 S7        30.28S
ROCK SPRINGS   NOT AVBL
DIXON          FAIR      49  38  66 SE5       30.26R
RAWLINS        CLEAR     45  33  63 N6        30.25R
6HR MIN TEMP:  45; 6HR MAX TEMP:  75;

SARATOGA       FAIR      46  32  57 W7        30.25R
LARAMIE        CLEAR     48  37  65 VRB3      30.25R
6HR MIN TEMP:  46; 6HR MAX TEMP:  69;

CHEYENNE       CLEAR     47  43  86 VRB5      30.24R
6HR MIN TEMP:  47; 6HR MAX TEMP:  71;

TORRINGTON     CLEAR     45  40  82 N8        30.20R
6HR MIN TEMP:  45; 6HR MAX TEMP:  64;

PINE BLUFFS    FAIR      45  45 100 N5        30.20R

$$



USA.gov is the U.S. government's official web portal to all federal, state and local government web resources and services.